Estación de San Fernando

Ultimos registro cada 15 minutos 30
Estación Fecha / Hora Temperatura Humedad Lluvia Velocidad Dirección Radiación Presion
30 San Fernando 10-05-2026 07:15 4,8 91 0 0,4 226 0 1014
29 San Fernando 10-05-2026 07:00 4,9 91 0 1,3 240 0 1014,3
28 San Fernando 10-05-2026 06:45 4,9 91 0 1,3 214 0 1014,2
27 San Fernando 10-05-2026 06:30 4,9 91 0 0,9 254 0 1014,1
26 San Fernando 10-05-2026 06:15 5 91 0 0,4 219 0 1013,9
25 San Fernando 10-05-2026 06:00 5,1 91 0 0,4 222 0 1013,6
24 San Fernando 10-05-2026 05:45 5,1 91 0 0,9 214 0 1013,6
23 San Fernando 10-05-2026 05:30 5,3 90 0 0,4 204 0 1013,6
22 San Fernando 10-05-2026 05:15 5,4 90 0 1,3 223 0 1013,7
21 San Fernando 10-05-2026 05:00 5,6 90 0 0,4 204 0 1013,9
20 San Fernando 10-05-2026 04:45 5,6 90 0 1,3 214 0 1013,7
19 San Fernando 10-05-2026 04:30 5,8 89 0 1,3 214 0 1013,8
18 San Fernando 10-05-2026 04:15 5,9 89 0 1,3 245 0 1013,7
17 San Fernando 10-05-2026 04:00 6 88 0 0,4 209 0 1013,9
16 San Fernando 10-05-2026 03:45 6,2 88 0 0,4 171 0 1014
15 San Fernando 10-05-2026 03:30 6,4 87 0 1,3 204 0 1014
14 San Fernando 10-05-2026 03:15 6,6 87 0 0,9 222 0 1014,2
13 San Fernando 10-05-2026 03:00 6,8 86 0 1,3 209 0 1014,2
12 San Fernando 10-05-2026 02:45 7 86 0 0,9 243 0 1014,3
11 San Fernando 10-05-2026 02:30 7,1 85 0 0,9 227 0 1014,5
10 San Fernando 10-05-2026 02:15 7,1 85 0 2,2 187 0 1014,6
9 San Fernando 10-05-2026 02:00 7,3 84 0 0,4 243 0 1014,5
8 San Fernando 10-05-2026 01:45 7,5 84 0 0,4 261 0 1014,6
7 San Fernando 10-05-2026 01:30 7,7 82 0 0 241 0 1014,6
6 San Fernando 10-05-2026 01:15 7,7 82 0 0 241 0 1014,6
5 San Fernando 10-05-2026 01:00 7,9 81 0 0,9 166 0 1014,7
4 San Fernando 10-05-2026 00:45 8,2 81 0 0,4 222 0 1014,9
3 San Fernando 10-05-2026 00:30 8,4 80 0 1,3 193 0 1014,9
2 San Fernando 10-05-2026 00:15 8,7 80 0 0 249 0 1015,2
1 San Fernando 10-05-2026 00:00 8,8 79 0 0,9 193 0 1015,3